#timestamp,LO_Frequency,Hit,StdDev 
1513072815.7,286047000.7,N
1513072835.5,286047001.1,N
1513072855.4,286046999.8,N
1513072875.2,286047000.0,N
1513072895.1,286046999.9,N
1513072896.0,286046999.9,N
1513072915.8,286047000.3,N
1513072935.6,286047000.6,N
1513072955.5,286047000.1,N
1513072975.3,286046998.1,N
1513072995.1,286047001.2,N
1513073015.9,286047000.6,N
1513073035.7,286047002.8,N
1513073055.6,286047001.2,N
1513073075.4,286047001.0,N
1513073095.2,286046998.5,N
1513073115.1,286047000.5,N
1513073116.0,286047000.5,N
1513073135.8,286047000.6,N
1513073155.6,286047000.1,N
1513073175.5,286047000.0,N
1513073195.3,286046999.7,N
1513073215.2,286047000.5,N
1513073235.9,286047000.1,N
1513073255.7,286047000.1,N
1513073275.6,286047000.1,N
1513073295.4,286047000.4,N
1513073315.2,286046999.7,N
1513073335.1,286047000.1,N
1513073336.0,286047000.1,N
1513073355.8,286047000.7,N
1513073375.7,286047002.2,N
1513073395.5,286047000.1,N
1513073415.3,286047000.9,N
1513073435.2,286047002.8,Y
1513073455.0,286047001.9,P
1513073455.9,286047001.9,N
1513073475.8,286047002.4,P
1513073495.6,286047002.2,N
1513073515.4,286047000.1,N
1513073535.3,286047002.6,N
1513073555.1,286046999.9,N
1513073575.8,286047000.4,N
1513073595.7,286046999.9,N
1513073615.5,286047002.0,N
1513073635.4,286047000.3,N
1513073655.2,286047000.2,N
1513073675.0,286047002.0,N
1513073675.9,286047002.0,N
1513073695.8,286046998.3,N
1513073715.6,286046998.9,N
1513073735.4,286046998.1,N
1513073755.3,286046999.3,N
1513073775.1,286046999.3,N
1513073795.9,286046998.5,N
1513073815.7,286047000.0,N
1513073835.5,286047002.8,N
1513073855.4,286047001.0,N
1513073875.2,286047000.4,N
1513073895.0,286047000.8,N
1513073895.9,286047000.8,N
1513073915.8,286047000.6,N
1513073935.6,286047000.4,N
1513073955.5,286047001.1,N
1513073975.3,286046998.7,N
1513073995.1,286046998.4,N
1513074015.9,286046998.6,N
1513074035.7,286046998.6,N
1513074055.5,286046999.4,N
1513074075.4,286046998.3,N
1513074095.2,286046998.7,N
1513074115.1,286046998.4,N
1513074116.0,286046998.4,N
1513074135.8,286046998.4,N
1513074155.6,286047001.2,N
1513074175.5,286046999.0,N
1513074195.3,286046998.9,N
1513074215.2,286047001.0,N
1513074235.9,286047002.8,N
1513074255.7,286047002.2,N
1513074275.6,286046999.7,N
1513074295.4,286047001.0,N
1513074315.2,286047000.9,N
1513074335.1,286047001.0,N
1513074336.0,286047001.0,N
1513074355.8,286047001.1,N
1513074375.7,286047001.2,N
1513074395.5,286047000.5,N
1513074415.3,286047004.2,Y
1513074435.2,286047005.5,P
1513074455.0,286047003.7,N
1513074455.9,286047003.7,N
1513074475.8,286047003.2,N
1513074495.6,286047003.5,N
1513074515.4,286047003.1,N
1513074535.3,286047005.6,Y
1513074555.1,286047000.2,P
1513074575.8,286047001.1,N
1513074595.7,286047000.7,N
1513074615.5,286047001.2,N
1513074635.4,286046998.2,N
1513074655.2,286046999.3,N
1513074675.0,286046998.2,N
1513074675.9,286046998.2,N
1513074695.8,286046999.4,N
1513074715.6,286046998.9,N
1513074735.4,286046996.8,N
1513074755.3,286046997.9,N
1513074775.1,286046997.1,N
1513074795.9,286046997.6,N
1513074815.7,286046995.1,N
1513074835.5,286046995.8,N
1513074855.4,286046995.6,N
1513074875.2,286046996.2,N
1513074895.1,286046995.6,N
1513074896.0,286046995.6,N
1513074915.8,286046995.6,N
1513074935.6,286046994.9,N
1513074955.5,286046996.2,N
1513074975.3,286046995.4,N
1513074995.1,286046997.4,N
1513075015.9,286046999.5,N
1513075035.7,286046996.8,N
1513075055.6,286046996.7,N
1513075075.4,286046997.1,N
1513075095.2,286046997.9,N
1513075115.1,286046997.1,N
1513075116.0,286046997.1,N
1513075135.8,286046996.5,N
1513075155.6,286046999.3,N
1513075175.5,286046997.4,N
1513075195.3,286046995.9,Y
1513075215.2,286046996.7,P
1513075235.9,286046997.0,P
1513075255.7,286046999.6,N
1513075275.6,286046996.7,N
1513075295.4,286046999.8,N
1513075315.2,286046999.8,N
1513075335.1,286046998.6,N
1513075336.0,286046998.6,N
1513075355.8,286047000.9,N
1513075375.7,286046998.4,N
1513075395.5,286046998.1,N
1513075415.3,286047000.6,N
1513075435.2,286046998.4,N
1513075455.0,286046999.5,N
1513075455.9,286046999.5,N
1513075475.8,286046999.1,N
1513075495.6,286046998.4,N
1513075515.4,286047000.6,N
1513075535.3,286047001.1,N
1513075555.1,286046998.4,N
1513075575.9,286046997.0,N
1513075595.7,286046999.4,N
1513075615.5,286046996.6,N
1513075635.4,286046999.2,N
1513075655.2,286046996.7,N
1513075675.1,286046997.2,N
1513075676.0,286046997.2,N
1513075695.8,286046996.7,N
1513075715.6,286046997.2,N
1513075735.5,286046999.3,N
1513075755.3,286046999.2,N
1513075775.1,286046998.8,N
1513075795.9,286046999.3,N
1513075815.7,286046998.5,N
1513075835.6,286046998.3,N
1513075855.4,286046998.8,N
1513075875.2,286046996.7,N
1513075895.1,286046997.9,N
1513075896.0,286046997.9,N
1513075915.8,286046997.4,N
1513075935.6,286046995.3,Y
1513075955.5,286046999.1,P
1513075975.3,286047000.6,N
1513075995.2,286047000.0,N
1513076015.9,286046999.6,N
1513076035.7,286046998.5,N
1513076055.6,286047002.7,Y
1513076075.4,286047001.8,P
1513076095.3,286047003.9,P
1513076115.1,286047004.3,N
1513076135.8,286047004.4,N
1513076155.7,286047002.1,N
1513076175.5,286047002.3,N
1513076195.4,286047001.8,N
1513076215.2,286047000.2,N
1513076235.0,286047002.7,N
1513076235.9,286047002.7,N
1513076255.8,286047000.1,N
1513076275.6,286047001.6,N
1513076295.4,286047001.9,N
1513076315.3,286047002.6,N
1513076335.1,286047002.0,N
1513076355.9,286047001.6,N
1513076375.7,286047000.1,N
1513076395.5,286047000.5,N
